User: anonymous   Login
Location: Unspecified
(47.2333°N, 39.7000°E)
Time: 19:22:02
(UTC+00:00)
Language:

ISS - Orbit

View from above orbital plane
View from above orbital plane
View from above satellite
View from above satellite

Ground track
Ground track

The orbit data is extracted from the following two-line orbital elements,

1 25544U 98067A   21102.68593758  .00000643  00000-0  19891-4 0  9992
2 25544  51.6438 306.7022 0002829 218.5917 257.2449 15.48882386278444
Epoch (UTC): 12 April 2021 16:27:45
Eccentricity: 0.0002829
inclination: 51.6438°
perigee height: 418 km
apogee height: 422 km
right ascension of ascending node: 306.7022°
argument of perigee: 218.5917°
revolutions per day: 15.48882386
mean anomaly at epoch: 257.2449°
orbit number at epoch: 27844

The dashed part of the orbit path shows where the satellite is in the earth's shadow,  

DLR